Regional Weather Roundup
Issued by NWS

Home | Current Version | Previous Version | Graphics & Text | Print | Product List | Glossary On
Versions: 1 2 3 4 5 6 7 8 9 10 11 12 13 14 15 16 17 18 19 20 21 22 23 24 25 26 27 28 29 30 31 32 33 34 35 36 37 38 39 40 41 42 43 44 45 46 47 48 49 50
000
ASUS43 KDTX 011210
RWRMI
MICHIGAN HOURLY REGIONAL WEATHER ROUNDUP
NATIONAL WEATHER SERVICE DETROIT/PONTIAC MI
800 AM EDT WED OCT 01 2014

NOTE: "FAIR" INDICATES FEW OR NO CLOUDS BELOW 12,000 FEET WITH NO
SIGNIFICANT WEATHER AND/OR OBSTRUCTION TO VISIBILITY.

MIZ047>049-052>055-059>063-066>070-074>076-081>083-011300-
SOUTHEAST LOWER MICHIGAN

CITY           SKY/WX    TMP DP  RH WIND       PRES   REMARKS
ADRIAN         CLEAR     47  46  97 CALM      30.05R
6HR MIN TEMP:  46; 6HR MAX TEMP:  50;

ALMA           FOG       51  50  97 CALM      30.06R VSB 1/4
ANN ARBOR      CLOUDY    53  49  86 CALM      30.04R
BAD AXE        FOG       56  56 100 E6        30.05R VSB 1/4
6HR MIN TEMP:  56; 6HR MAX TEMP:  56;

DETROIT CITY   CLOUDY    55  54  96 CALM      30.05S VSB 1/2
DETROIT        MOCLDY    54  52  94 CALM      30.05R
6HR MIN TEMP:  52; 6HR MAX TEMP:  55;

FLINT          FOG       54  52  93 CALM      30.05R VSB 1/4
6HR MIN TEMP:  53; 6HR MAX TEMP:  54;

GROSSE ILE     CLEAR     52  48  87 CALM      30.04R
HILLSDALE      CLOUDY    52  51  99 CALM      30.05R
6HR MIN TEMP:  49; 6HR MAX TEMP:  52;

HOWELL         FOG       52  52 100 CALM      30.04R VSB 1/4
6HR MIN TEMP:  50; 6HR MAX TEMP:  52;


CITY           SKY/WX    TMP DP  RH WIND       PRES   REMARKS
JACKSON        CLOUDY    51  50  96 CALM      30.05R
6HR MIN TEMP:  50; 6HR MAX TEMP:  52;

LAMBERTVILLE   FOG       45  43  93 CALM      30.04R VSB 1/4
LANSING        FOG       51  49  92 CALM      30.05R VSB 1/4
6HR MIN TEMP:  50; 6HR MAX TEMP:  51;

LAPEER         NOT AVBL
MASON          FOG       51  50  98 CALM      30.05R VSB 1/4
MONROE           N/A     48  48 100 N3        30.03R FOG
MT. CLEMENS    MOCLDY    55  55 100 CALM      30.02R FOG
6HR MIN TEMP:  53; 6HR MAX TEMP:  55;

PONTIAC        CLOUDY    53  51  93 SE5       30.04R FOG
6HR MIN TEMP:  52; 6HR MAX TEMP:  53;

PORT HOPE        N/A     59  57  93 NE6       30.04R
6HR MIN TEMP:  57; 6HR MAX TEMP:  59;

PORT HURON     FOG       54  54 100 CALM      30.04R VSB 1/2
TRI CITIES     FOG       54  52  93 CALM      30.06R VSB 1/2
6HR MIN TEMP:  52; 6HR MAX TEMP:  54; 6HR PCP: TRACE;

YPSILANTI      CLOUDY    56  51  84 CALM      30.05R
6HR MIN TEMP:  55; 6HR MAX TEMP:  57;

$$
MIZ043>046-050>051-056>058-064>065-071>073-077>080-011300-
SOUTHWEST LOWER MICHIGAN

CITY           SKY/WX    TMP DP  RH WIND       PRES   REMARKS
BATTLE CREEK   CLOUDY    53  47  79 VRB6      30.05R
6HR MIN TEMP:  52; 6HR MAX TEMP:  53;

BENTON HARBOR  CLOUDY    52  47  83 SE7       30.04
6HR MIN TEMP:  52; 6HR MAX TEMP:  53;

BIG RAPIDS     FOG       51  51 100 CALM      30.04S VSB 1
6HR MIN TEMP:  50; 6HR MAX TEMP:  51;

COLDWATER      CLOUDY    53  48  83 E3        30.04S
6HR MIN TEMP:  53; 6HR MAX TEMP:  54;

HOLLAND        CLOUDY    54  49  83 E5        30.05R
6HR MIN TEMP:  51; 6HR MAX TEMP:  55;

GRAND RAPIDS   CLOUDY    53  51  93 E5        30.05R
6HR MIN TEMP:  52; 6HR MAX TEMP:  53;

KALAMAZOO      CLOUDY    52  47  83 SE3       30.05R
6HR MIN TEMP:  52; 6HR MAX TEMP:  53;

MARSHALL       CLOUDY    50  48  93 CALM      30.05R
MUSKEGON       CLOUDY    53  48  83 E3        30.05R
6HR MIN TEMP:  53; 6HR MAX TEMP:  54;

$$
MIZ016>042-011300-
NORTHERN LOWER MICHIGAN

CITY           SKY/WX    TMP DP  RH WIND       PRES   REMARKS
ALPENA         FOG       53  53 100 NE6       30.08R VSB 1/2
6HR MIN TEMP:  52; 6HR MAX TEMP:  53;

BEAVER ISLAND  CLOUDY    55  52  92 SE3       30.06S
6HR MIN TEMP:  54; 6HR MAX TEMP:  55;

BELLAIRE       CLOUDY    52  50  92 CALM      30.06R
6HR MIN TEMP:  50; 6HR MAX TEMP:  52;

CADILLAC       FOG       49  49 100 CALM      30.05R VSB 1/2
CHARLEVOIX     CLOUDY    53  53  99 CALM      30.09R FOG
6HR MIN TEMP:  52; 6HR MAX TEMP:  53;

FRANKFORT      CLOUDY    52  49  87 CALM      30.05S
GAYLORD        FOG       50  50 100 E3        30.06R VSB 1
6HR MIN TEMP:  50; 6HR MAX TEMP:  50;

GRAYLING       FOG       51  51 100 CALM      30.06R VSB 1
6HR MIN TEMP:  49; 6HR MAX TEMP:  51;

HARBOR SPRINGS CLOUDY    53  51  94 NE6       30.06S
HOUGHTON LAKE  CLOUDY    51  50  96 E7        30.06R FOG
6HR MIN TEMP:  48; 6HR MAX TEMP:  51;

OSCODA         FOG       54  54 100 NE7       30.05S VSB 3/4
PELLSTON       CLOUDY    52  51  97 CALM      30.08R
6HR MIN TEMP:  51; 6HR MAX TEMP:  52;

TRAVERSE CITY  CLOUDY    53  49  86 CALM      30.04F
6HR MIN TEMP:  51; 6HR MAX TEMP:  53;

$$
MIZ007>008-015-011300-
EASTERN UPPER MICHIGAN

CITY           SKY/WX    TMP DP  RH WIND       PRES   REMARKS
MACKINAC ISLAN CLOUDY    53  53  99 SE5       30.07S FOG
6HR MIN TEMP:  53; 6HR MAX TEMP:  55;

NEWBERRY       CLOUDY    51  51 100 SE5       30.07R FOG
S. S. MARIE    CLOUDY    51  49  92 E6        30.07S FOG
6HR MIN TEMP:  51; 6HR MAX TEMP:  52;

$$
MIZ004>006-011>014-085-011300-
CENTRAL UPPER MICHIGAN

CITY           SKY/WX    TMP DP  RH WIND       PRES   REMARKS
MANISTIQUE     CLOUDY    55  52  90 S7        30.03S
SAWYER-GWINN   FOG       46  46 100 S8        30.02R VSB 1/2
$$
MIZ001>003-009>011-084-011300-
WESTERN UPPER MICHIGAN

CITY           SKY/WX    TMP DP  RH WIND       PRES   REMARKS
IRON MOUNTAIN  CLOUDY    48  46  93 S3        30.00F FOG
6HR MIN TEMP:  47; 6HR MAX TEMP:  48;

HOUGHTON       CLOUDY    49  45  86 S9        29.97S
6HR MIN TEMP:  43; 6HR MAX TEMP:  49;

COPPER HARBOR    N/A     50  47  89 SW12G20   29.96R
6HR MIN TEMP:  49; 6HR MAX TEMP:  51;

$$

ABBREVIATIONS USED IN REMARKS
   TC - TEMPERATURE IN CELSIUS
  WCI - WIND CHILL INDEX
   HX - HEAT INDEX
  VSB - VISIBILITY




USA.gov is the U.S. government's official web portal to all federal, state and local government web resources and services.